• In Uzbekistan
  • List of Countries
  • For 7 days
  • Water Temperature
  • Satellite Maps
  • Weather Map
  • Weather Widgets
  • user-avatar
    Login

    Hourly Weather Bururi

    Today, 26 April, Friday

    Time Temperature Precipitation Wind Pressure Humidity
    00:00 +19°C° 1.1 mm 1 mps 617 mmHg 92%
    01:00 +19°C° 1.1 mm 1 mps 617 mmHg 92%
    02:00 +18°C° 0 mm 1 mps 617 mmHg 91%
    03:00 +18°C° 0.2 mm 1 mps 617 mmHg 91%
    04:00 +18°C° 0.2 mm 1 mps 616 mmHg 90%
    05:00 +18°C° 0.2 mm 1 mps 616 mmHg 89%
    06:00 +19°C° 0.1 mm 1 mps 617 mmHg 87%
    07:00 +19°C° 0.1 mm 1 mps 617 mmHg 85%
    08:00 +21°C° 0 mm 1 mps 618 mmHg 80%
    09:00 +22°C° 0 mm 1 mps 618 mmHg 74%
    10:00 +23°C° 0 mm 2 mps 619 mmHg 67%
    11:00 +24°C° 0 mm 2 mps 619 mmHg 60%
    12:00 +25°C° 0.1 mm 2 mps 618 mmHg 59%
    13:00 +25°C° 0.1 mm 2 mps 618 mmHg 58%
    14:00 +26°C° 0.1 mm 2 mps 618 mmHg 57%
    15:00 +25°C° 0.2 mm 1 mps 617 mmHg 63%
    16:00 +23°C° 0.2 mm 1 mps 617 mmHg 69%
    17:00 +22°C° 0.2 mm 1 mps 616 mmHg 75%
    18:00 +21°C° 0.2 mm 1 mps 616 mmHg 76%
    19:00 +20°C° 0.2 mm 1 mps 616 mmHg 78%
    20:00 +19°C° 0.2 mm 1 mps 616 mmHg 80%
    21:00 +19°C° 0.1 mm 1 mps 616 mmHg 80%
    22:00 +16°C° 0.1 mm 0 mps 616 mmHg 81%
    23:00 +16°C° 0.1 mm 0 mps 616 mmHg 81%

    Tomorrow, 27 April, Saturday

    Time Temperature Precipitation Wind Pressure Humidity
    00:00 +16°C° 0.1 mm 0 mps 616 mmHg 82%
    01:00 +16°C° 0.1 mm 0 mps 616 mmHg 82%
    02:00 +16°C° 0.1 mm 0 mps 616 mmHg 83%
    03:00 +16°C° 0.1 mm 0 mps 616 mmHg 84%
    04:00 +16°C° 0.1 mm 0 mps 616 mmHg 84%
    05:00 +18°C° 0.1 mm 1 mps 616 mmHg 85%
    06:00 +19°C° 0 mm 1 mps 616 mmHg 82%
    07:00 +18°C° 0 mm 0 mps 617 mmHg 79%
    08:00 +19°C° 0 mm 0 mps 618 mmHg 77%
    09:00 +22°C° 0.2 mm 1 mps 618 mmHg 72%
    10:00 +23°C° 0.2 mm 1 mps 618 mmHg 68%
    11:00 +24°C° 0.2 mm 2 mps 619 mmHg 64%
    12:00 +24°C° 0.4 mm 2 mps 618 mmHg 65%
    13:00 +24°C° 0.4 mm 2 mps 618 mmHg 66%
    14:00 +24°C° 0.4 mm 2 mps 617 mmHg 67%
    15:00 +23°C° 0.6 mm 2 mps 617 mmHg 72%
    16:00 +21°C° 0.6 mm 2 mps 617 mmHg 77%
    17:00 +21°C° 0.6 mm 1 mps 616 mmHg 83%
    18:00 +20°C° 0.6 mm 1 mps 616 mmHg 85%
    19:00 +19°C° 0.6 mm 1 mps 617 mmHg 88%
    20:00 +19°C° 0.6 mm 1 mps 617 mmHg 90%
    21:00 +18°C° 0.8 mm 1 mps 617 mmHg 91%
    22:00 +18°C° 0.8 mm 1 mps 617 mmHg 92%
    23:00 +18°C° 0.8 mm 1 mps 618 mmHg 93%

    Day after tomorrow, 28 April, Sunday

    Time Temperature Precipitation Wind Pressure Humidity
    00:00 +18°C° 0.8 mm 1 mps 617 mmHg 93%
    01:00 +16°C° 0.8 mm 0 mps 617 mmHg 93%
    02:00 +16°C° 0.8 mm 0 mps 617 mmHg 94%
    03:00 +16°C° 0.7 mm 0 mps 616 mmHg 94%
    04:00 +16°C° 0.7 mm 0 mps 616 mmHg 94%
    05:00 +16°C° 0.7 mm 0 mps 616 mmHg 94%
    06:00 +16°C° 0.6 mm 0 mps 617 mmHg 93%
    07:00 +16°C° 0.6 mm 0 mps 617 mmHg 93%
    08:00 +17°C° 0.6 mm 0 mps 618 mmHg 92%
    09:00 +17°C° 0.6 mm 0 mps 618 mmHg 90%
    10:00 +18°C° 0.6 mm 0 mps 618 mmHg 88%
    11:00 +18°C° 0.6 mm 0 mps 619 mmHg 86%
    12:00 +20°C° 0.6 mm 1 mps 618 mmHg 86%
    13:00 +21°C° 0.6 mm 1 mps 617 mmHg 87%
    14:00 +21°C° 0.6 mm 1 mps 616 mmHg 87%
    15:00 +20°C° 0.3 mm 1 mps 616 mmHg 88%
    16:00 +20°C° 0.3 mm 1 mps 616 mmHg 89%
    17:00 +20°C° 0.3 mm 1 mps 616 mmHg 90%
    18:00 +19°C° 0.1 mm 1 mps 616 mmHg 90%
    19:00 +19°C° 0.1 mm 1 mps 617 mmHg 89%
    20:00 +16°C° 0.1 mm 0 mps 617 mmHg 89%
    21:00 +16°C° 0.2 mm 0 mps 617 mmHg 89%
    22:00 +16°C° 0.2 mm 0 mps 617 mmHg 89%
    23:00 +16°C° 0.2 mm 0 mps 617 mmHg 89%

    29 April, Monday

    Time Temperature Precipitation Wind Pressure Humidity
    00:00 +15°C° 0.2 mm 0 mps 617 mmHg 89%
    01:00 +15°C° 0.2 mm 0 mps 617 mmHg 90%
    02:00 +15°C° 0.2 mm 0 mps 616 mmHg 91%
    03:00 +15°C° 0.1 mm 0 mps 616 mmHg 91%
    04:00 +15°C° 0.1 mm 0 mps 616 mmHg 90%
    05:00 +15°C° 0.1 mm 0 mps 616 mmHg 90%
    06:00 +16°C° 0 mm 0 mps 617 mmHg 88%
    07:00 +17°C° 0 mm 0 mps 618 mmHg 86%
    08:00 +18°C° 0 mm 0 mps 618 mmHg 84%
    09:00 +19°C° 0.1 mm 0 mps 619 mmHg 78%
    10:00 +23°C° 0.1 mm 1 mps 619 mmHg 72%
    11:00 +24°C° 0.1 mm 1 mps 619 mmHg 66%
    12:00 +24°C° 0.5 mm 1 mps 619 mmHg 69%
    13:00 +24°C° 0.5 mm 1 mps 618 mmHg 71%
    14:00 +23°C° 0.5 mm 1 mps 617 mmHg 74%
    15:00 +23°C° 0.9 mm 1 mps 616 mmHg 79%
    16:00 +22°C° 0.9 mm 1 mps 616 mmHg 85%
    17:00 +21°C° 0.9 mm 1 mps 616 mmHg 90%
    18:00 +20°C° 0.4 mm 1 mps 616 mmHg 91%
    19:00 +18°C° 0.4 mm 0 mps 617 mmHg 93%
    20:00 +17°C° 0.4 mm 0 mps 617 mmHg 94%
    21:00 +17°C° 0.8 mm 0 mps 617 mmHg 94%
    22:00 +16°C° 0.8 mm 0 mps 617 mmHg 94%
    23:00 +16°C° 0.8 mm 0 mps 617 mmHg 94%

    30 April, Tuesday

    Time Temperature Precipitation Wind Pressure Humidity
    00:00 +16°C° 0.7 mm 0 mps 617 mmHg 94%
    01:00 +18°C° 0.7 mm 1 mps 616 mmHg 94%
    02:00 +16°C° 0.7 mm 1 mps 616 mmHg 94%
    03:00 +16°C° 0 mm 1 mps 616 mmHg 93%
    04:00 +16°C° 0 mm 1 mps 616 mmHg 93%
    05:00 +16°C° 0 mm 1 mps 616 mmHg 93%
    06:00 +18°C° 0 mm 1 mps 617 mmHg 91%
    07:00 +19°C° 0 mm 1 mps 618 mmHg 88%
    08:00 +20°C° 0 mm 1 mps 619 mmHg 86%
    09:00 +21°C° 0.1 mm 1 mps 619 mmHg 81%
    10:00 +22°C° 0.1 mm 1 mps 619 mmHg 76%
    11:00 +24°C° 0.1 mm 1 mps 619 mmHg 72%
    12:00 +24°C° 0.5 mm 1 mps 619 mmHg 72%
    13:00 +24°C° 0.5 mm 1 mps 618 mmHg 71%
    14:00 +24°C° 0.5 mm 1 mps 617 mmHg 71%
    15:00 +23°C° 2.1 mm 1 mps 617 mmHg 77%
    16:00 +22°C° 2.1 mm 1 mps 616 mmHg 84%
    17:00 +21°C° 2.1 mm 1 mps 616 mmHg 90%
    18:00 +20°C° 2 mm 1 mps 616 mmHg 91%
    19:00 +19°C° 2 mm 1 mps 616 mmHg 91%
    20:00 +19°C° 2 mm 1 mps 617 mmHg 92%
    21:00 +18°C° 0.1 mm 1 mps 617 mmHg 92%
    22:00 +18°C° 0.1 mm 1 mps 617 mmHg 92%
    23:00 +18°C° 0.1 mm 1 mps 617 mmHg 92%

    1 May, Wednesday

    Time Temperature Precipitation Wind Pressure Humidity
    00:00 +18°C° 0 mm 1 mps 616 mmHg 91%
    01:00 +16°C° 0 mm 1 mps 616 mmHg 91%
    02:00 +16°C° 0 mm 1 mps 616 mmHg 91%
    03:00 +16°C° 0.1 mm 1 mps 616 mmHg 91%
    04:00 +16°C° 0.1 mm 1 mps 616 mmHg 92%
    05:00 +16°C° 0.1 mm 1 mps 616 mmHg 92%
    06:00 +18°C° 0.2 mm 1 mps 617 mmHg 91%
    07:00 +19°C° 0.2 mm 1 mps 618 mmHg 89%
    08:00 +20°C° 0.2 mm 1 mps 618 mmHg 87%
    09:00 +20°C° 0.2 mm 1 mps 618 mmHg 85%
    10:00 +21°C° 0.2 mm 1 mps 618 mmHg 83%
    11:00 +22°C° 0.2 mm 1 mps 618 mmHg 80%
    12:00 +22°C° 0.6 mm 1 mps 617 mmHg 79%
    13:00 +23°C° 0.6 mm 1 mps 617 mmHg 77%
    14:00 +23°C° 0.6 mm 1 mps 616 mmHg 76%
    15:00 +23°C° 1.5 mm 1 mps 616 mmHg 81%
    16:00 +22°C° 1.5 mm 1 mps 616 mmHg 85%
    17:00 +21°C° 1.5 mm 1 mps 616 mmHg 90%
    18:00 +20°C° 2.2 mm 1 mps 616 mmHg 91%
    19:00 +19°C° 2.2 mm 1 mps 616 mmHg 92%
    20:00 +19°C° 2.2 mm 1 mps 617 mmHg 93%
    21:00 +18°C° 0.6 mm 1 mps 617 mmHg 93%
    22:00 +18°C° 0.6 mm 1 mps 617 mmHg 92%
    23:00 +18°C° 0.6 mm 1 mps 617 mmHg 92%
    Show more